Regional Weather Roundup
Issued by NWS

Home | Current Version | Previous Version | Graphics & Text | Print | Product List | Glossary On
Versions: 1 2 3 4 5 6 7 8 9 10 11 12 13 14 15 16 17 18 19 20 21 22 23 24 25 26 27 28 29 30 31 32 33 34 35 36 37 38 39 40 41 42 43 44 45 46 47 48 49 50
000
ASUS43 KOAX 281802
RWRNE

WEATHER ROUNDUP FOR NEBRASKA
NATIONAL WEATHER SERVICE OMAHA NE
100 PM CDT THU APR 28 2016

NOTES: SATELLITE DATA IS BEING USED TO AUGMENT CLOUD COVER ABOVE
       12000 FEET.
       "FAIR" INDICATES FEW OR NO CLOUDS BELOW 12,000 FEET WITH NO
       SIGNIFICANT WEATHER AND/OR OBSTRUCTIONS TO VISIBILITY.

  * THESE STATIONS DO NOT REPORT WEATHER SUCH AS RAIN...SNOW OR FOG.

NEZ001>004-019>022-054>056-281900-
NEBRASKA PANHANDLE

CITY           SKY/WX    TMP DP  RH WIND       PRES   REMARKS
SCOTTSBLUFF    CLOUDY    42  29  59 NE6       30.02R
6HR MIN TEMP:  32; 6HR MAX TEMP:  43;

ALLIANCE       CLOUDY    40  29  64 N13       30.00F WCI  32
6HR MIN TEMP:  30; 6HR MAX TEMP:  41;

CHADRON        CLOUDY    41  33  73 N7        30.05S
6HR MIN TEMP:  33; 6HR MAX TEMP:  41;

KIMBALL        CLOUDY    41  30  64 NE8       29.98S
SIDNEY         CLOUDY    42  29  59 NE14      30.01S
6HR MIN TEMP:  26; 6HR MAX TEMP:  44;

$$

NEZ057>060-069>072-079>082-281900-
SOUTHWEST NEBRASKA

CITY           SKY/WX    TMP DP  RH WIND       PRES   REMARKS
NORTH PLATTE   CLOUDY    45  35  68 NE12      30.01S
6HR MIN TEMP:  30; 6HR MAX TEMP:  45;

IMPERIAL       SUNNY     47  31  53 N10G17    30.01S
6HR MIN TEMP:  33; 6HR MAX TEMP:  47;

LEXINGTON      CLOUDY    47  38  70 N7        30.01F
MCCOOK         PTSUNNY   51  35  54 N8        30.00F
6HR MIN TEMP:  31; 6HR MAX TEMP:  53;

$$

NEZ005>010-023>029-035>040-094-281900-
NORTH CENTRAL NEBRASKA

CITY           SKY/WX    TMP DP  RH WIND       PRES   REMARKS
VALENTINE      CLOUDY    42  34  73 N14       30.03R
6HR MIN TEMP:  33; 6HR MAX TEMP:  42;

BROKEN BOW     CLOUDY    45  39  79 NW14      30.00S
6HR MIN TEMP:  35; 6HR MAX TEMP:  45; 6HR PCP:  0.02;

ORD            CLOUDY    45  40  82 NW15      29.99R
6HR MIN TEMP:  39; 6HR MAX TEMP:  47; 6HR PCP: TRACE;

$$

NEZ041-046>049-061>064-073>077-083>087-281900-
SOUTH CENTRAL NEBRASKA

CITY           SKY/WX    TMP DP  RH WIND       PRES   REMARKS
GRAND ISLAND   CLOUDY    48  40  73 NW13      30.00R
6HR MIN TEMP:  40; 6HR MAX TEMP:  49;

AURORA         CLOUDY    49  42  76 N16       29.99R
HASTINGS       CLOUDY    46  39  76 NW12      30.00R
6HR MIN TEMP:  38; 6HR MAX TEMP:  46;

KEARNEY *      CLOUDY    46  37  71 N10       30.02S
YORK           CLOUDY    48  41  76 NW14      29.98S
$$

NEZ011>018-030>034-042>045-281900-
NORTHEAST NEBRASKA

CITY           SKY/WX    TMP DP  RH WIND       PRES   REMARKS
NORFOLK        CLOUDY    46  38  73 N15       29.96R
6HR MIN TEMP:  42; 6HR MAX TEMP:  46; 6HR PCP: TRACE;

ALBION         CLOUDY    46  42  86 N16       29.98R
BLAIR          CLOUDY    48  43  81 NW10      29.94R
COLUMBUS *     CLOUDY    46  36  66 NW14      29.98R
FREMONT        CLOUDY    47  41  80 NW9       29.97R
TEKAMAH        CLOUDY    49  43  80 NW14      29.94R
6HR MIN TEMP:  45; 6HR MAX TEMP:  49; 6HR PCP:  0.01;

$$

NEZ050>053-065>068-078-088>093-281900-
SOUTHEAST NEBRASKA

CITY           SKY/WX    TMP DP  RH WIND       PRES   REMARKS
LINCOLN        CLOUDY    52  40  63 NW14      29.98R
6HR MIN TEMP:  47; 6HR MAX TEMP:  52;

OMAHA EPPLEY   CLOUDY    51  43  74 NW10      29.94R
6HR MIN TEMP:  46; 6HR MAX TEMP:  51;

FALLS CITY     CLOUDY    53  44  71 W15       29.95R
6HR MIN TEMP:  49; 6HR MAX TEMP:  54;

$$

NEZ044-045-051>053-067-281900-
OMAHA AREA

CITY           SKY/WX    TMP DP  RH WIND       PRES   REMARKS
OMAHA EPPLEY   CLOUDY    51  43  74 NW10      29.94R
6HR MIN TEMP:  46; 6HR MAX TEMP:  51;

BLAIR          CLOUDY    48  43  81 NW10      29.94R
FREMONT        CLOUDY    47  41  80 NW9       29.97R
OFFUTT AFB     CLOUDY    50  44  80 W10       29.94R
$$




USA.gov is the U.S. government's official web portal to all federal, state and local government web resources and services.